Wind_Speed
27 31 29 23 25 32 35 33 31 28 25 24 26 23 22 18 17 12 8 7 8 4 6 6 4 4 5 4 5 5 6 9 10
26 31 31 29 26 30 31 34 30 30 28 27 25 25 23 19 19 18 12 9 8 5 4 8 5 4 4 4 4 4 6 9 9
26 26 27 24 29 33 34 32 33 29 30 27 26 26 25 20 18 17 17 13 11 8 5 5 8 7 5 9 7 8 7 7 9
24 26 33 27 29 32 33 28 28 28 23 26 28 28 26 23 19 17 17 16 11 9 8 7 4 4 5 4 5 8 7 8 10
18 21 24 32 30 34 39 37 25 33 26 21 24 26 27 26 21 18 18 19 15 12 11 9 8 8 8 6 6 6 6 6 8
15 17 24 26 25 28 35 40 34 26 27 23 25 21 21 22 22 21 19 19 20 17 14 12 11 11 11 7 8 7 6 7 8
13 16 19 21 22 25 28 29 31 25 24 21 19 21 21 17 18 19 20 17 19 19 16 14 12 10 11 10 11 11 10 10 10
13 15 17 17 21 23 23 25 29 29 23 26 16 7 18 11 15 17 17 15 14 13 12 12 12 11 11 12 12 11 11 11 11
16 17 17 17 19 22 26 28 29 24 22 22 16 15 16 15 15 14 11 11 12 12 12 12 12 11 12 12 15 15 15 14 13
14 16 17 17 17 17 17 20 22 23 22 19 15 14 17 21 21 16 12 7 5 5 4 4 3 6 10 12 14 15 15 14 13
16 18 17 18 19 18 20 23 24 21 22 20 21 19 16 17 15 12 13 14 11 11 10 7 3 3 4 5 5 8 10 12 13
18 19 20 20 18 19 17 17 18 21 19 18 15 14 14 12 13 12 12 13 13 13 15 17 15 14 9 8 7 7 8 10 13
19 20 21 21 21 20 21 21 22 20 20 19 17 13 10 9 8 7 7 4 2 2 2 10 12 12 9 7 5 6 6 8 4
22 25 26 25 24 23 21 18 15 16 16 15 13 11 10 8 7 5 4 3 4 5 6 7 9 9 6 5 5 2 4 3 1
27 27 24 23 23 22 19 15 10 12 11 11 11 9 8 7 7 7 6 5 5 5 7 9 8 5 3 3 2 2 3 4 7
24 23 24 21 19 18 15 11 9 6 6 5 6 6 6 7 6 5 5 7 8 9 9 8 8 7 7 6 4 3 4 5 6
20 20 19 15 12 10 8 6 4 3 4 5 6 6 7 8 8 9 9 9 10 11 11 10 9 9 8 8 9 10 11 11 12
15 15 13 12 9 6 2 1 1 2 2 3 5 6 6 7 7 7 8 9 10 10 11 12 11 10 11 11 12 12 13 12 11
7 9 10 9 6 3 2 3 3 3 3 5 5 5 5 6 7 7 6 6 6 7 6 6 7 8 8 7 7 7 7 8 9
14 16 11 8 5 5 5 5 4 4 5 7 7 7 6 6 6 5 5 5 5 3 2 2 1 1 2 4 5 6 6 7 6
Wind_Direction
198 202 208 206 204 216 212 208 211 213 211 214 212 216 216 220 215 219 227 227 213 239 245 222 236 240 226 202 212 222 226 220 229
186 196 199 213 203 208 204 206 213 217 218 219 217 218 217 225 223 229 236 227 221 245 252 206 209 224 226 217 218 227 230 228 240
187 190 191 200 213 215 211 207 208 221 225 227 226 225 223 226 233 234 234 235 235 247 244 231 234 252 278 246 252 257 251 235 234
183 188 194 195 208 213 208 219 220 220 231 236 234 231 231 231 233 237 236 234 236 244 233 218 231 232 252 248 259 253 255 235 235
184 187 189 201 204 206 207 211 220 226 245 247 243 237 237 237 233 236 237 236 239 239 231 221 242 242 256 265 272 259 245 231 242
174 174 184 188 192 196 203 204 212 234 231 238 231 232 236 235 237 238 238 234 233 236 241 242 252 250 247 259 256 260 255 246 252
174 175 181 187 194 199 201 208 212 207 209 213 217 231 228 221 233 239 236 233 235 239 244 246 244 247 240 242 245 252 260 264 268
171 184 186 191 195 202 197 204 205 215 222 220 234 232 207 225 234 226 226 222 221 225 228 237 245 250 247 245 251 251 260 263 265
170 172 183 190 198 209 212 208 206 219 220 207 211 231 232 221 203 181 167 185 204 214 223 233 241 249 253 256 249 252 256 260 264
164 174 174 177 182 189 203 205 209 211 212 214 213 202 206 218 215 185 173 178 177 166 184 198 224 250 250 255 256 258 254 256 262
163 172 174 175 178 183 188 196 196 195 187 183 179 185 198 207 208 223 230 237 242 247 245 243 250 302 286 283 286 254 255 257 257
167 169 171 170 177 177 168 171 175 169 174 182 183 184 190 204 207 223 239 240 253 251 251 249 247 256 274 278 290 290 283 276 261
161 165 163 159 153 156 163 157 163 170 156 156 156 150 164 164 162 182 180 173 179 144 172 230 229 225 228 233 249 290 315 307 296
149 149 146 143 138 134 128 126 135 140 139 145 142 147 145 139 142 147 143 145 145 150 179 194 194 191 196 209 214 203 11 324 348
146 144 143 141 139 133 127 126 135 136 138 141 142 147 145 153 148 148 137 123 122 123 145 164 156 162 165 204 219 191 215 259 288
150 147 145 144 144 141 143 142 140 150 158 170 180 190 187 191 195 194 179 170 170 172 177 184 186 188 198 207 220 244 273 286 292
148 149 150 149 150 146 142 141 147 172 193 194 196 202 207 211 209 208 205 204 203 200 202 210 216 221 232 241 248 260 266 268 270
158 160 161 158 156 147 139 336 317 271 224 200 193 196 197 192 192 198 207 208 208 216 223 229 235 243 253 263 270 277 281 281 284
171 195 187 175 180 205 283 314 303 265 215 202 194 196 190 186 182 184 190 195 204 213 227 239 246 251 263 275 283 298 312 316 320
203 210 216 225 244 279 304 303 286 245 217 216 212 214 218 217 203 192 188 187 187 190 181 207 248 298 309 308 321 334 336 334 330
Height
1533 1541 1546 1551 1555 1558 1564 1570 1576 1581 1584 1587 1591 1595 1599 1601 1604 1606 1608 1610 1611 1612 1613 1615 1615 1615 1617 1617 1618 1619 1621 1622 1623
1529 1534 1540 1545 1551 1556 1561 1566 1573 1578 1582 1586 1590 1593 1597 1599 1603 1604 1607 1609 1611 1612 1612 1613 1613 1615 1616 1617 1617 1618 1619 1620 1621
1525 1531 1537 1542 1546 1551 1558 1565 1570 1575 1580 1584 1587 1591 1595 1598 1600 1603 1605 1607 1608 1610 1611 1611 1612 1614 1615 1616 1616 1616 1617 1618 1618
1519 1526 1532 1538 1542 1548 1555 1563 1568 1571 1576 1580 1584 1588 1591 1594 1597 1599 1602 1603 1605 1607 1608 1610 1611 1612 1613 1614 1614 1614 1615 1615 1616
1521 1526 1531 1535 1540 1546 1552 1557 1563 1570 1575 1578 1582 1585 1587 1590 1595 1596 1598 1600 1602 1604 1604 1607 1609 1610 1611 1612 1612 1612 1612 1613 1613
1523 1526 1529 1534 1539 1544 1549 1555 1561 1563 1569 1575 1577 1581 1584 1587 1591 1593 1594 1596 1599 1600 1601 1603 1605 1607 1608 1609 1610 1610 1610 1611 1612
1523 1527 1531 1534 1538 1542 1546 1552 1558 1561 1565 1570 1572 1577 1581 1583 1587 1589 1591 1593 1594 1596 1598 1600 1601 1603 1605 1605 1607 1608 1608 1609 1609
1524 1526 1529 1533 1537 1542 1545 1550 1555 1561 1562 1566 1569 1571 1575 1579 1584 1586 1587 1589 1591 1593 1594 1597 1599 1600 1602 1603 1604 1604 1605 1606 1606
1525 1527 1529 1532 1536 1541 1544 1547 1552 1557 1560 1563 1566 1569 1571 1576 1580 1582 1584 1586 1588 1589 1591 1592 1595 1596 1598 1599 1599 1600 1601 1602 1603
1525 1528 1529 1532 1535 1538 1542 1544 1549 1553 1557 1561 1564 1566 1569 1574 1577 1578 1579 1583 1587 1587 1588 1589 1590 1592 1593 1594 1595 1596 1597 1598 1599
1526 1528 1530 1532 1535 1538 1540 1543 1546 1550 1554 1558 1562 1566 1570 1572 1572 1573 1577 1580 1583 1585 1585 1586 1587 1589 1590 1590 1591 1592 1593 1594 1594
1526 1529 1531 1533 1537 1539 1542 1544 1546 1549 1553 1557 1560 1564 1567 1568 1570 1573 1573 1575 1578 1579 1580 1583 1583 1584 1586 1587 1588 1589 1589 1590 1590
1527 1529 1532 1534 1537 1539 1542 1545 1547 1551 1553 1557 1560 1562 1564 1566 1566 1570 1571 1571 1572 1574 1576 1578 1577 1578 1581 1583 1583 1586 1586 1588 1587
1528 1531 1533 1536 1539 1542 1544 1547 1551 1553 1555 1557 1559 1561 1563 1564 1566 1568 1569 1571 1572 1573 1573 1575 1577 1576 1578 1579 1582 1581 1581 1586 1584
1532 1534 1537 1541 1542 1545 1548 1551 1554 1555 1556 1558 1560 1563 1563 1566 1566 1568 1569 1570 1572 1572 1575 1576 1575 1577 1576 1578 1580 1580 1581 1582 1584
1536 1538 1540 1544 1547 1549 1551 1554 1556 1557 1558 1559 1560 1562 1562 1564 1565 1567 1568 1571 1572 1573 1575 1575 1575 1576 1577 1577 1578 1580 1579 1580 1581
1541 1544 1546 1549 1551 1553 1554 1556 1557 1558 1558 1559 1559 1561 1562 1563 1564 1566 1567 1569 1570 1571 1572 1573 1574 1574 1575 1575 1576 1577 1578 1578 1578
1546 1549 1550 1551 1554 1555 1556 1556 1557 1557 1557 1557 1558 1560 1562 1562 1563 1563 1566 1566 1567 1568 1569 1570 1571 1571 1572 1573 1573 1574 1573 1573 1573
1545 1552 1554 1554 1555 1556 1557 1556 1556 1556 1555 1557 1557 1558 1559 1561 1563 1563 1563 1563 1565 1566 1566 1568 1568 1568 1569 1569 1570 1569 1569 1568 1568
1546 1551 1552 1553 1555 1556 1557 1556 1555 1556 1555 1557 1557 1558 1558 1560 1560 1560 1561 1562 1564 1564 1565 1567 1567 1566 1566 1566 1567 1566 1566 1565 1566